User: anonymous   Login
Location: Unspecified
(0.0000°N, 0.0000°E)
Time: 00:15:41
(UTC+00:00)
Language:

APRIZESAT 9 - Orbit

View from above orbital plane
View from above orbital plane
View from above satellite
View from above satellite

Ground track
Ground track

The orbit data is extracted from the following two-line orbital elements,

1 40018U 14033J   17326.57004856 +.00000092 +00000-0 +22806-4 0  9991
2 40018 097.8186 197.5573 0071919 162.7161 197.6519 14.69839391183623
Epoch (UTC): 22 November 2017 13:40:52
Eccentricity: 0.0071919
inclination: 97.8186°
perigee height: 611 km
apogee height: 712 km
right ascension of ascending node: 197.5573°
argument of perigee: 162.7161°
revolutions per day: 14.69839391
mean anomaly at epoch: 197.6519°
orbit number at epoch: 18362

The dashed part of the orbit path shows where the satellite is in the earth's shadow,  

DLR